DIRECTV 15 (40663 NORAD) Tracking and Keplerian Element Data

This shows tracking and keplerian element data for the satellite.

Feedback or suggestion? Click here.




ElementValue
Catalog40663
NameDIRECTV 15
Epoch Orbit2075
Epoch Day21.10558249
Epoch Year2021
RAAN90.246
Inclination0.0211
Eccentricity2.36E-05
Argument of Perigee105.7226
Mean Anonmoly219.8287
Mean Motion1.00269793
Decay Rate-9.3E-07
L11 40663U 15026A 21021.10558249 -.00000093 00000-0 00000+0 0 9995
L22 40663 0.0211 90.2460 0000236 105.7226 219.8287 1.00269793 20758

Live tracking and technical data element details for DIRECTV 15 (NORAD 40663). DIRECTV 15 can be tracked NOW for your location showing map with azimuth and elevation plus other details from your city location.

Track the satellite on the map from your city or location and see movement details for azimuth, elevation, latitude, longitude, range, height, and movement on the map or in text.







IsCatalogInMostPopularTable: catalog: 40663, numindb: 531
Update: records affected: 1



GetName: 40663 DIRECTV 15

Hit Count: updated at: Sat, 23 Jan 2021 03:58:21 GMT